STARLETTE 1 07646U 75010A 12037.53683313 -.00000041 00000-0 80890-4 0 8355 2 07646 049.8255 284.9051 0205777 018.1859 342.6270 13.82279333869072 LAGEOS 1 1 08820U 76039A 12035.95652749 +.00000005 +00000-0 +10000-3 0 02443 2 08820 109.8135 182.2098 0044979 345.2184 014.7039 06.38664693578529 EGS (AJISAI) 1 16908U 86061A 12037.24777779 -.00000083 00000-0 10000-3 0 7396 2 16908 050.0089 074.8112 0011609 151.3681 208.7793 12.44468545827649 LAGEOS 2 1 22195U 92070B 12035.90392016 -.00000009 +00000-0 +10000-3 0 04728 2 22195 052.6786 342.4169 0137825 053.4046 307.9108 06.47293837455991 STELLA 1 22824U 93061B 12037.15700702 -.00000021 00000-0 91509-5 0 862 2 22824 098.5890 337.6560 0006553 008.8914 351.2421 14.27303247956694 WESTPAC 1 25398U 98043E 12036.91904394 .00000023 00000-0 28360-4 0 3208 2 25398 098.3564 020.7623 0000648 319.7420 040.3734 14.22706721705047 GRACE 1 1 27391U 02012A 12036.73048580 .00003500 00000-0 92156-4 0 46 2 27391 089.0082 233.5311 0013123 324.2370 035.8025 15.38148561553143 GRACE 2 1 27392U 02012B 12036.73018764 .00003415 00000-0 89865-4 0 46 2 27392 089.0074 233.5564 0014039 325.3497 034.6855 15.38145274553140 GOCE 1 34602U 09013A 12037.55896539 -.00002202 19040-5 -22174-5 0 5636 2 34602 096.6105 060.8635 0005402 029.7971 330.3595 16.05974085169377